DK0GS-10 Weather Reports


time (UTC)temp
C
wind
direction
speed
KPH
gust
KPH
rain 1hr
cm
rain 24hr
cm
rain mn
cm
humidity
%
barometer
mb
20260506175522 11 0.0 1.6 0.00 2.36 2.13 94 1004.7
20260506174522 11 0.0 4.8 0.00 2.36 2.13 94 1004.8
20260506173522 11 0.0 1.6 0.00 2.36 2.13 94 1004.7
20260506172522 11 0.0 0.0 0.00 2.36 2.13 93 1004.8
20260506171601 11 0.0 3.2 0.00 2.36 2.13 93 1004.7
20260506170522 11 0.0 1.6 0.00 2.36 2.13 93 1004.6
20260506165522 12 0.0 0.0 0.00 2.36 2.13 92 1004.6
20260506164522 12 0.0 0.0 0.00 2.36 2.13 92 1004.6
20260506163522 12 0.0 0.0 0.00 2.36 2.13 92 1004.5
20260506162536 12 0.0 1.6 0.00 2.36 2.13 92 1004.4
20260506161522 12 0.0 3.2 0.00 2.36 2.13 92 1004.2
20260506160522 12 0.0 4.8 0.00 2.36 2.13 91 1004.3
20260506155522 12 0.0 3.2 0.00 2.36 2.13 91 1004.4
20260506154522 12 0.0 6.4 0.00 2.36 2.13 91 1004.4
20260506153523 12 0.0 6.4 0.00 2.36 2.13 90 1004.4
20260506152602 12 0.0 3.2 0.00 2.36 2.13 91 1004.4
20260506151601 12 180 1.6 4.8 0.00 2.36 2.13 91 1004.4
20260506150522 12 180 1.6 8.0 0.00 2.36 2.13 91 1004.3
20260506145522 12 0.0 3.2 0.00 2.36 2.13 92 1004.4
20260506144522 12 0.0 4.8 0.00 2.36 2.13 92 1004.3
20260506143522 12 0.0 4.8 0.00 2.36 2.13 92 1004.4
20260506142522 12 0.0 3.2 0.00 2.36 2.13 92 1004.4
20260506141522 12 0.0 3.2 0.00 2.36 2.13 93 1004.3
20260506140522 12 0.0 4.8 0.00 2.36 2.13 93 1004.3
20260506135522 12 0.0 1.6 0.00 2.36 2.13 94 1004.3
20260506134547 12 180 1.6 8.0 0.00 2.36 2.13 93 1004.3
20260506133601 12 0.0 3.2 0.00 2.36 2.13 94 1004.4
20260506132547 12 0.0 4.8 0.00 2.36 2.13 94 1004.3
20260506131522 12 0.0 1.6 0.00 2.36 2.13 95 1004.3
20260506130522 12 0.0 1.6 0.00 2.36 2.13 95 1004.3
20260506125547 12 0.0 3.2 0.00 2.36 2.13 95 1004.3
20260506124522 11 0.0 3.2 0.00 2.36 2.13 96 1004.3
20260506123522 11 0.0 3.2 0.00 2.36 2.13 96 1004.3
20260506122601 11 0.0 4.8 0.00 2.36 2.13 96 1004.3
20260506121601 11 0.0 3.2 0.00 2.36 2.13 96 1004.2
20260506120522 11 0.0 1.6 0.00 2.36 2.13 96 1004.1
20260506115522 11 0.0 3.2 0.00 2.36 2.13 96 1004.0
20260506114522 11 0.0 4.8 0.00 2.36 2.13 96 1003.9
20260506113522 11 0.0 3.2 0.00 2.36 2.13 97 1003.8
20260506112522 11 0.0 1.6 0.00 2.36 2.13 97 1004.0
20260506111536 11 0.0 3.2 0.00 2.36 2.13 97 1003.9
20260506110522 11 0.0 4.8 0.00 2.36 2.13 97 1004.1
20260506105522 11 0.0 4.8 0.00 2.36 2.13 97 1004.0
20260506104547 11 0.0 3.2 0.00 2.36 2.13 97 1004.1
20260506103522 11 0.0 3.2 0.00 2.36 2.13 97 1004.0
20260506102611 11 0.0 4.8 0.00 2.36 2.13 97 1003.9
20260506101522 11 0.0 6.4 0.00 2.36 2.13 97 1003.9
20260506100521 11 0.0 3.2 0.00 2.36 2.13 97 1003.8
20260506095521 11 180 1.6 6.4 0.00 2.36 2.13 97 1003.8
20260506094522 11 0.0 4.8 0.00 2.36 2.13 97 1003.8
20260506093521 11 0.0 4.8 0.00 2.36 2.13 97 1003.7
20260506092522 10 0.0 4.8 0.00 2.36 2.13 97 1003.7
20260506091522 10 180 1.6 4.8 0.00 2.36 2.13 97 1003.7
20260506090522 10 0.0 4.8 0.00 2.36 2.13 97 1003.6
20260506085521 10 0.0 4.8 0.03 2.36 2.13 97 1003.6
20260506084521 10 0.0 3.2 0.05 2.36 2.13 97 1003.5
20260506083522 10 0.0 4.8 0.10 2.36 2.13 97 1003.4
20260506082535 10 180 1.6 4.8 0.13 2.36 2.13 97 1003.4
20260506081535 10 0.0 4.8 0.13 2.36 2.13 97 1003.4
20260506080521 10 0.0 6.4 0.15 2.36 2.13 97 1003.5
20260506072521 10 0.0 1.6 0.08 2.24 2.01 97 1003.4
20260506071521 10 0.0 1.6 0.08 2.24 2.01 97 1003.4
20260506070521 10 0.0 0.0 0.05 2.21 1.98 97 1003.4
20260506061522 10 0.0 0.0 0.05 2.18 1.93 97 1003.2
20260506060521 10 0.0 0.0 0.05 2.18 1.93 97 1003.1
20260506050521 10 0.0 0.0 0.15 2.13 1.88 97 1003.1
20260506044521 10 0.0 0.0 0.10 2.06 1.80 97 1003.3
20260506043600 10 0.0 0.0 0.15 2.08 1.80 97 1003.2
20260506042600 10 0.0 0.0 0.20 2.08 1.78 97 1003.2
20260506041521 10 0.0 0.0 0.23 2.08 1.75 96 1003.2
20260506040650 10 0.0 1.6 0.23 2.11 1.73 96 1003.2
20260506035535 10 0.0 1.6 0.28 2.13 1.73 96 1003.2
20260506034535 10 0.0 1.6 0.28 2.13 1.70 96 1003.3
20260506033535 10 0.0 1.6 0.28 2.08 1.65 96 1003.4
20260506032521 10 0.0 1.6 0.25 2.03 1.57 96 1003.6
20260506031535 10 0.0 1.6 0.25 1.98 1.52 96 1003.7
20260506030521 10 0.0 1.6 0.28 1.96 1.50 96 1003.7
20260506025521 10 0.0 0.0 0.30 1.91 1.45 96 1003.9
20260506024521 10 0.0 0.0 0.36 1.88 1.42 96 1004.0
20260506023521 10 0.0 1.6 0.36 1.83 1.37 96 1004.1
20260506022521 10 0.0 3.2 0.36 1.78 1.32 96 1004.1
20260506021535 10 0.0 3.2 0.38 1.73 1.27 96 1004.2
20260506020546 10 0.0 4.8 0.43 1.68 1.22 96 1004.2
20260506015521 10 0.0 4.8 0.41 1.60 1.14 96 1004.3
20260506014521 10 0.0 1.6 0.38 1.52 1.07 96 1004.4
20260506013546 10 0.0 4.8 0.38 1.50 1.02 96 1004.4
20260506012521 10 0.0 4.8 0.43 1.45 0.97 96 1004.4
20260506011521 10 0.0 3.2 0.41 1.37 0.89 96 1004.4
20260506010520 10 0.0 6.4 0.33 1.27 0.79 96 1004.5
20260506005534 10 0.0 4.8 0.33 1.22 0.74 96 1004.6
20260506004521 10 0.0 3.2 0.33 1.17 0.69 96 1004.6
20260506003521 10 180 1.6 4.8 0.30 1.12 0.64 96 1004.8
20260506002523 10 0.0 3.2 0.25 1.02 0.53 96 1004.9
20260506001523 10 0.0 3.2 0.23 0.97 0.48 96 1005.0
20260506000547 10 0.0 3.2 0.25 0.94 0.46 96 1005.0
20260505235522 10 0.0 1.6 0.23 0.89 0.41 96 1005.1
20260505234522 10 0.0 1.6 0.20 0.84 0.36 96 1005.3
20260505233522 10 0.0 1.6 0.20 0.81 0.33 96 1005.3
20260505232522 10 0.0 4.8 0.18 0.76 0.28 95 1005.3
20260505231523 11 0.0 3.2 0.20 0.74 0.25 95 1005.4
20260505230522 11 0.0 3.2 0.18 0.69 0.20 95 1005.4
20260505225522 11 0.0 3.2 0.20 0.69 0.18 95 1005.4
20260505224601 11 0.0 3.2 0.20 0.66 0.15 95 1005.4
20260505223522 11 0.0 4.8 0.20 0.64 0.13 95 1005.4
20260505222522 11 0.0 3.2 0.20 0.61 0.10 95 1005.5
20260505221536 11 0.0 3.2 0.18 0.56 0.05 95 1005.6
20260505220523 11 0.0 4.8 0.18 0.53 0.03 95 1005.7
20260505215523 11 0.0 3.2 0.15 0.48 0.48 95 1005.7
20260505214612 11 0.0 3.2 0.13 0.46 0.46 95 1005.7
20260505213536 11 0.0 4.8 0.13 0.43 0.43 95 1005.8
20260505212522 11 0.0 3.2 0.10 0.41 0.41 95 1005.9
20260505211522 11 0.0 1.6 0.08 0.38 0.38 95 1005.9
20260505210523 11 180 1.6 6.4 0.08 0.36 0.36 95 1005.8
20260505205536 11 0.0 4.8 0.05 0.33 0.33 94 1005.8
20260505204601 11 180 1.6 6.4 0.05 0.33 0.33 94 1005.8
20260505203601 11 180 1.6 3.2 0.03 0.30 0.30 94 1005.9
20260505202523 12 180 1.6 8.0 0.03 0.30 0.30 94 1005.9
20260505201522 12 180 1.6 4.8 0.03 0.30 0.30 94 1005.8
20260505200522 12 180 1.6 6.4 0.00 0.28 0.28 94 1005.9
20260505195522 12 180 1.6 4.8 0.00 0.28 0.28 93 1005.8
20260505194522 12 180 1.6 4.8 0.00 0.28 0.28 93 1005.8
20260505193522 12 180 1.6 9.7 0.00 0.30 0.28 93 1005.8
20260505192522 12 180 1.6 4.8 0.00 0.41 0.28 92 1005.8
20260505191522 12 180 1.6 4.8 0.00 0.46 0.28 92 1005.8
20260505190522 12 180 1.6 4.8 0.00 0.56 0.28 91 1005.7
20260505185536 12 180 1.6 4.8 0.00 0.71 0.28 91 1005.7
20260505184522 13 180 1.6 6.4 0.00 0.74 0.28 90 1005.7
20260505183522 13 180 3.2 8.0 0.00 0.74 0.28 90 1005.8
20260505182536 13 180 1.6 6.4 0.00 0.74 0.28 90 1005.8
20260505181522 13 180 1.6 6.4 0.00 0.74 0.28 89 1005.9
20260505180522 13 180 1.6 4.8 0.00 0.74 0.28 89 1005.9